TOM-2

导读

暂未查询到TOM-2(NORAD 69914)卫星的公开权威信息,无法生成对应摘要。你可以核对卫星名称、NORAD编号是否准确,或补充该卫星的所属国别、发射时间等相关线索,以便进一步为你查询整理。

基本信息
目录编号:
69914
目录名称:
TOM-2
国际标识:
2026-156AX
轨道中心:
EARTH
卫星名称:
TOM-2
卫星全名:
TOM-2
卫星状态:
在轨 (已飞行60 天)
发射日期:
2026-07-07 UTC
国别 :
德国 (DE)
星等 :
--
轨道信息
数据来源 国际轨道数据
星历时间: 2026-09-04T21:00:50+0800
22小时前
查看轨道信息
半长轴: 6973.49km
偏心率: 0.0001417
轨道倾角: 97.749°
近地点辐角 302.763°
升交点赤经 146.938°
平近点角 57.345°
近地点: 594.364km
远地点: 596.342km
周期: 96.591分钟
每日圈数: 14.908281
详细信息
使用方式:
暂无
2D轨道图
3D轨道图
轨道高度分析图
轨道倾角分析图
轨道综合分析图
查看轨道综合分析图